Location: Unspecified
(0.0000°N, 0.0000°E)
Time: 14:06:24
(UTC+00:00)

CZ-4 DEB - Pass Details

Date: 23 June 2024
Orbit: 785 x 976 km, 99.1° (Epoch: 18 July)

Event Time Altitude Azimuth Distance (km) Brightness Sun altitude
Exits shadow 20:57:31 26° 258° (WSW) 1,785 ? -39.4°
Drops below altitude 10° 21:02:25 10° 312° (NW) 2,714 ? -40.5°
Sets 21:05:18 0° 324° (NW) 3,662 ? -41.1°
